Date String (YYYY-MM-DD hh:mm:ss) UTC,Instrument flags,Ambient pressure (hPa),Sample flow (lpm),Bypass flow (lpm),Sample temperature (°C),Ambient temperature (°C),ASC tube jacket temperature (°C),LED temperature (°C),Box temperature (°C),Sample RH (%),Span deviation,Mass concentration (μg/m³),Mass concentration (μg/m³),Mass concentration (μg/m³)
DateTimeUTC,F1_M11,P_M11,Q1_M11,Q2_M11,T1_M11,T2_M11,T3_M11,T4_M11,T5_M11,U1_M11,ZSPAN_M11,X2_M11,X0_M11,X1_M11
2023-05-23 01:00:00,,0829.2,5.01,0.00,29.6,25.8,00.0,37.7,31.0,19.4,0003.4,0040.03,0060.72,0038.17
2023-05-23 01:01:00,,0829.2,5.01,0.00,29.5,26.0,00.0,37.7,30.9,19.7,0003.4,0040.01,0061.56,0038.16
2023-05-23 01:02:00,,0829.2,5.00,0.00,29.4,26.3,00.0,37.7,30.9,19.5,0003.5,0040.08,0061.74,0038.21
2023-05-23 01:03:00,,0829.2,5.00,0.00,29.4,26.6,00.0,37.7,31.0,19.4,0003.5,0040.18,0061.78,0038.27
2023-05-23 01:04:00,,0829.2,5.00,0.00,29.4,26.9,00.0,37.7,31.0,19.7,0003.4,0040.26,0061.47,0038.34
2023-05-23 01:05:00,,0829.3,4.99,0.00,29.4,27.2,00.0,37.8,31.1,19.4,0003.4,0040.27,0060.33,0038.37
2023-05-23 01:06:00,,0829.3,4.99,0.00,29.4,27.4,00.0,37.8,31.1,19.4,0003.3,0040.34,0060.18,0038.40
2023-05-23 01:07:00,,0829.3,4.99,0.00,29.5,27.6,00.0,37.8,31.1,19.4,0003.3,0040.41,0059.87,0038.43
2023-05-23 01:08:00,,0829.4,5.00,0.00,29.5,27.8,00.0,37.8,31.2,18.8,0003.4,0040.44,0059.90,0038.45
2023-05-23 01:09:00,,0829.4,5.00,0.00,29.5,28.0,00.0,37.8,31.2,18.7,0003.4,0040.46,0059.77,0038.49
2023-05-23 01:10:00,,0829.4,5.02,0.00,29.5,28.1,00.0,37.8,31.3,18.8,0003.4,0040.49,0059.34,0038.50
2023-05-23 01:11:00,,0829.3,5.00,0.00,29.6,28.2,00.0,37.8,31.3,19.1,0003.5,0040.50,0058.23,0038.52
2023-05-23 01:12:00,,0829.3,4.99,0.00,29.6,28.3,00.0,37.9,31.3,18.9,0003.5,0040.54,0057.71,0038.54
2023-05-23 01:13:00,,0829.3,5.01,0.00,29.6,28.3,00.0,37.9,31.4,19.0,0003.4,0040.46,0056.49,0038.49
2023-05-23 01:14:00,,0829.4,4.99,0.00,29.6,27.2,00.0,37.8,31.2,19.0,0003.4,0040.38,0056.28,0038.47
2023-05-23 01:15:00,,0829.4,5.00,0.00,29.6,25.9,00.0,37.8,31.1,18.9,0003.4,0040.39,0056.21,0038.46
2023-05-23 01:16:00,,0829.3,5.02,0.00,29.5,25.8,00.0,37.7,31.0,18.7,0003.4,0040.39,0055.60,0038.49
2023-05-23 01:17:00,,0829.4,5.01,0.00,29.5,26.0,00.0,37.7,30.9,18.8,0003.5,0040.41,0055.60,0038.50
2023-05-23 01:18:00,,0829.3,5.00,0.00,29.4,26.3,00.0,37.7,30.9,18.7,0003.5,0040.47,0055.61,0038.54
2023-05-23 01:19:00,,0829.3,5.00,0.00,29.4,26.6,00.0,37.7,31.0,18.8,0003.6,0040.52,0055.48,0038.53
2023-05-23 01:20:00,,0829.3,5.01,0.00,29.4,26.9,00.0,37.7,31.0,18.7,0003.6,0040.57,0054.91,0038.55
2023-05-23 01:21:00,,0829.3,5.00,0.00,29.4,27.2,00.0,37.7,31.0,18.7,0003.5,0040.61,0055.61,0038.59
2023-05-23 01:22:00,,0829.3,4.99,0.00,29.4,27.4,00.0,37.7,31.1,18.6,0003.5,0040.59,0055.66,0038.58
2023-05-23 01:23:00,,0829.3,5.00,0.00,29.4,27.6,00.0,37.7,31.1,18.6,0003.5,0040.57,0055.43,0038.54
2023-05-23 01:24:00,,0829.3,5.01,0.00,29.5,27.8,00.0,37.8,31.2,18.6,0003.6,0040.62,0055.79,0038.59
2023-05-23 01:25:00,,0829.4,5.00,0.00,29.5,27.9,00.0,37.8,31.2,18.6,0003.6,0040.66,0055.79,0038.62
2023-05-23 01:26:00,,0829.4,5.00,0.00,29.5,28.0,00.0,37.8,31.2,18.7,0003.7,0040.68,0056.03,0038.60
2023-05-23 01:27:00,,0829.4,5.00,0.00,29.5,28.1,00.0,37.8,31.3,18.6,0003.9,0040.64,0056.48,0038.53
2023-05-23 01:28:00,,0829.4,5.01,0.00,29.6,28.2,00.0,37.8,31.3,18.6,0003.8,0040.57,0056.64,0038.50
2023-05-23 01:29:00,,0829.4,5.00,0.00,29.6,28.3,00.0,37.8,31.3,18.5,0003.8,0040.52,0057.18,0038.46
2023-05-23 01:30:00,,0829.4,4.98,0.00,29.6,28.4,00.0,37.9,31.4,18.5,0003.7,0040.50,0057.35,0038.45
2023-05-23 01:31:00,,0829.4,5.00,0.00,29.7,27.3,00.0,37.8,31.3,18.5,0003.7,0040.50,0057.34,0038.47
2023-05-23 01:32:00,,0829.4,5.00,0.00,29.6,25.9,00.0,37.7,31.1,18.4,0003.8,0040.47,0056.66,0038.42
2023-05-23 01:33:00,,0829.4,5.01,0.00,29.5,25.7,00.0,37.7,31.0,18.5,0003.9,0040.47,0056.42,0038.42
2023-05-23 01:34:00,,0829.5,5.01,0.00,29.5,25.9,00.0,37.7,30.9,18.5,0003.8,0040.53,0057.07,0038.46
2023-05-23 01:35:00,,0829.4,5.00,0.00,29.4,26.2,00.0,37.7,30.9,18.6,0003.8,0040.55,0056.97,0038.50
2023-05-23 01:36:00,,0829.5,5.00,0.00,29.4,26.5,00.0,37.7,30.9,18.7,0003.7,0040.54,0057.31,0038.49
2023-05-23 01:37:00,,0829.5,5.00,0.00,29.4,26.8,00.0,37.7,31.0,18.7,0003.8,0040.57,0057.90,0038.55
2023-05-23 01:38:00,,0829.6,5.00,0.00,29.4,27.1,00.0,37.7,31.0,18.9,0003.8,0040.57,0058.15,0038.59
2023-05-23 01:39:00,,0829.5,4.98,0.00,29.4,27.3,00.0,37.7,31.1,19.1,0003.8,0040.60,0057.96,0038.62
2023-05-23 01:40:00,,0829.5,4.99,0.00,29.4,27.5,00.0,37.7,31.1,19.2,0003.8,0040.59,0057.64,0038.64
2023-05-23 01:41:00,,0829.5,5.00,0.00,29.5,27.7,00.0,37.7,31.1,19.2,0003.9,0040.54,0057.77,0038.62
2023-05-23 01:42:00,,0829.5,5.01,0.00,29.5,27.9,00.0,37.8,31.2,19.1,0003.8,0040.43,0058.08,0038.56
2023-05-23 01:43:00,,0829.5,5.01,0.00,29.5,28.0,00.0,37.8,31.2,18.7,0003.8,0040.49,0058.20,0038.59
2023-05-23 01:44:00,,0829.5,4.98,0.00,29.5,28.1,00.0,37.8,31.3,19.0,0003.8,0040.48,0058.27,0038.60
2023-05-23 01:45:00,,0829.4,5.00,0.00,29.6,28.2,00.0,37.8,31.3,18.9,0003.7,0040.37,0058.08,0038.52
2023-05-23 01:46:00,,0829.5,4.99,0.00,29.6,28.2,00.0,37.8,31.3,18.6,0003.7,0040.41,0058.21,0038.50
2023-05-23 01:47:00,,0829.5,5.01,0.00,29.6,28.3,00.0,37.8,31.4,19.0,0003.7,0040.39,0057.76,0038.49
2023-05-23 01:48:00,,0829.5,5.00,0.00,29.6,28.4,00.0,37.9,31.4,18.9,0003.7,0040.33,0057.16,0038.46
2023-05-23 01:49:00,,0829.5,4.98,0.00,29.7,27.6,00.0,37.8,31.3,18.7,0003.7,0040.23,0056.38,0038.38
2023-05-23 01:50:00,,0829.4,5.00,0.00,29.6,25.9,00.0,37.8,31.1,18.7,0003.7,0040.20,0056.51,0038.34
2023-05-23 01:51:00,,0829.4,5.01,0.00,29.5,25.6,00.0,37.7,31.0,18.7,0003.6,0040.21,0056.78,0038.34
2023-05-23 01:52:00,,0829.4,5.01,0.00,29.5,25.8,00.0,37.7,30.8,18.6,0003.6,0040.31,0056.71,0038.39
2023-05-23 01:53:00,,0829.4,5.00,0.00,29.4,26.1,00.0,37.7,30.9,18.7,0003.5,0040.38,0056.13,0038.44
2023-05-23 01:54:00,,0829.5,4.99,0.00,29.4,26.4,00.0,37.7,30.9,18.8,0003.5,0040.36,0056.08,0038.46
2023-05-23 01:55:00,,0829.4,5.00,0.00,29.4,26.7,00.0,37.7,31.0,18.8,0003.4,0040.34,0055.92,0038.49
2023-05-23 01:56:00,,0829.5,5.00,0.00,29.4,27.0,00.0,37.7,31.0,18.7,0003.4,0040.46,0056.19,0038.60
2023-05-23 01:57:00,,0829.5,5.00,0.00,29.4,27.3,00.0,37.7,31.0,18.7,0003.4,0040.45,0056.55,0038.61
2023-05-23 01:58:00,,0829.5,5.00,0.00,29.4,27.5,00.0,37.7,31.1,18.7,0003.4,0040.52,0057.09,0038.64
2023-05-23 01:59:00,,0829.5,5.00,0.00,29.4,27.6,00.0,37.7,31.1,18.7,0003.4,0040.65,0057.34,0038.70
